Weather Roundup
Issued by NWS Springfield, MO

Home | Current Version | Previous Version | Text Only | Print | Product List | Glossary On
Versions: 1 2 3 4 5 6 7 8 9 10 11 12 13 14 15 16 17 18 19 20 21 22 23 24 25 26 27 28 29 30 31 32 33 34 35 36 37 38 39 40 41 42 43 44 45 46 47 48 49 50
000
NZUS99 KSGF 201357
HRRSGF

HOURLY WEATHER
NATIONAL WEATHER SERVICE SPRINGFIELD MO
800 AM CST FRI JAN 20 2017

......SGF CWA......

CITY           SKY/WX    TMP DP  RH WIND       PRES   REMARKS
SPRINGFIELD    CLOUDY    48  47  96 SE8       29.58F
JOPLIN         CLOUDY    49  48  97 E7        29.55F
WEST PLAINS    CLOUDY    49  47  93 E3        29.65F FOG
ROLLA          CLOUDY    46  45  96 CALM      29.60S
OSAGE BEACH    FOG       46  45  93 S3        29.62R VSB 1/4
BRANSON        CLOUDY    45  45 100 SE10      29.61F FOG

......SURROUNDING SGF CWA......

CITY           SKY/WX    TMP DP  RH WIND       PRES   REMARKS
CHANUTE        FOG       49  48  97 E7        29.51F VSB 1/2
PARSONS        CLOUDY    50  47  89 SE6       29.51F FOG
COFFEYVILLE    CLOUDY    50  48  93 SE7       29.51F
EMPORIA        FOG       45  45 100 E7        29.50F VSB 1/4
HARRISON AR    CLOUDY    46  46 100 SE6       29.60F FOG

......KANSAS AND MISSOURI......

CITY           SKY/WX    TMP DP  RH WIND       PRES   REMARKS
KANSAS CTY INT FOG       44  42  93 SE5       29.57R VSB 1/4
DOWNTOWN KC    CLOUDY    46  46 100 E5        29.57R FOG
COLUMBIA       FOG       46  46 100 SE5       29.61R VSB 1/2
SEDALIA        FOG       45  45 100 SE3       29.60R VSB<1/4
ST JOSEPH      CLOUDY    43  43 100 CALM      29.58S FOG
ST LOUIS       CLOUDY    50  48  93 S3        29.64S
WICHITA        CLOUDY    47  46  97 E6        29.50S FOG
TOPEKA         FOG       45  42  89 NE3       29.56S VSB 1/2
OLATHE         FOG       44  44 100 SE5       29.57R VSB 1/4

......TENNESSEE......

CITY           SKY/WX    TMP DP  RH WIND       PRES   REMARKS
MEMPHIS        NOT AVBL
NASHVILLE      PTSUNNY   55  53  93 S8        29.78R

......ARKANSAS.......

CITY           SKY/WX    TMP DP  RH WIND       PRES   REMARKS
FAYETTEVILLE   MOCLDY    48  47  96 SE5       29.57F
FT SMITH       FOG       45  43  93 NE6       29.59F VSB 1/4
LITTLE ROCK    CLOUDY    55  55 100 SE8       29.69R

......OKLAHOMA.......

CITY           SKY/WX    TMP DP  RH WIND       PRES   REMARKS
TULSA          CLOUDY    51  49  92 S16       29.52R
PONCA CITY     CLOUDY    49  45  86 SE7       29.50R
MCALESTER      PTCLDY    51  43  74 S7        29.57R
OKLAHOMA CITY  PTCLDY    35  35 100 S9        29.50R WCI  28

......IOWA............

CITY           SKY/WX    TMP DP  RH WIND       PRES   REMARKS
DES MOINES     NOT AVBL
QUAD CITIES    FOG       37  35  92 E6        29.63R VSB 1/2 WCI  32

......ILLINOIS........

CITY           SKY/WX    TMP DP  RH WIND       PRES   REMARKS
QUINCY         NOT AVBL
CHICAGO        CLOUDY    38  37  97 E7        29.62S FOG     WCI  33




USA.gov is the U.S. government's official web portal to all federal, state and local government web resources and services.